QPF
0.00 0.00 0.00 0.00 0.00 0.00 0.00 0.00 0.00 0.00 0.00 0.00 0.00 0.00 0.00 0.01 0.01 0.00 0.00 0.00 0.00 0.01 0.01 0.01 0.01 0.01 0.01 0.01 0.01 0.01 0.01 0.01 0.02 0.05 0.07 0.10 0.09 0.07 0.07 0.07 0.05 0.06 0.07 0.08
0.00 0.00 0.00 0.00 0.00 0.00 0.00 0.00 0.00 0.00 0.00 0.00 0.00 0.00 0.00 0.01 0.00 0.01 0.01 0.01 0.01 0.01 0.01 0.01 0.01 0.00 0.00 0.00 0.01 0.01 0.01 0.02 0.04 0.10 0.16 0.20 0.18 0.14 0.14 0.13 0.12 0.12 0.14 0.16
0.00 0.00 0.00 0.00 0.00 0.00 0.00 0.00 0.00 0.00 0.00 0.00 0.00 0.01 0.00 0.01 0.01 0.01 0.02 0.01 0.01 0.01 0.00 0.00 0.01 0.00 0.00 0.00 0.00 0.01 0.01 0.04 0.09 0.13 0.19 0.24 0.27 0.23 0.21 0.17 0.16 0.15 0.18 0.21
0.00 0.00 0.00 0.00 0.00 0.00 0.00 0.00 0.00 0.00 0.00 0.00 0.00 0.01 0.02 0.04 0.05 0.04 0.04 0.03 0.01 0.01 0.01 0.01 0.02 0.01 0.01 0.01 0.01 0.01 0.03 0.05 0.08 0.11 0.17 0.23 0.31 0.33 0.28 0.25 0.22 0.18 0.18 0.20
0.00 0.00 0.00 0.00 0.00 0.00 0.00 0.00 0.00 0.00 0.00 0.00 0.00 0.01 0.04 0.06 0.08 0.07 0.06 0.05 0.03 0.02 0.02 0.02 0.02 0.02 0.01 0.01 0.01 0.03 0.04 0.07 0.09 0.12 0.18 0.25 0.29 0.33 0.37 0.35 0.32 0.27 0.21 0.20
0.00 0.00 0.00 0.00 0.00 0.00 0.00 0.00 0.00 0.00 0.00 0.00 0.00 0.02 0.08 0.10 0.08 0.06 0.05 0.04 0.03 0.03 0.02 0.02 0.04 0.05 0.04 0.02 0.02 0.03 0.04 0.06 0.08 0.11 0.16 0.22 0.30 0.34 0.39 0.38 0.34 0.30 0.24 0.20
0.00 0.00 0.00 0.00 0.00 0.00 0.00 0.00 0.00 0.01 0.01 0.02 0.02 0.06 0.15 0.14 0.09 0.07 0.07 0.06 0.03 0.03 0.04 0.04 0.06 0.08 0.07 0.04 0.03 0.03 0.04 0.05 0.07 0.10 0.15 0.19 0.25 0.28 0.30 0.30 0.31 0.30 0.25 0.20
0.00 0.00 0.00 0.00 0.00 0.00 0.00 0.00 0.01 0.01 0.02 0.04 0.05 0.13 0.20 0.15 0.09 0.08 0.07 0.07 0.05 0.05 0.05 0.09 0.10 0.11 0.09 0.06 0.05 0.05 0.06 0.06 0.08 0.11 0.13 0.16 0.17 0.18 0.21 0.21 0.22 0.21 0.21 0.20
0.00 0.00 0.00 0.00 0.00 0.00 0.00 0.00 0.00 0.01 0.01 0.03 0.09 0.18 0.18 0.11 0.09 0.09 0.09 0.07 0.08 0.08 0.09 0.12 0.14 0.13 0.11 0.09 0.09 0.09 0.08 0.08 0.08 0.10 0.12 0.15 0.16 0.16 0.17 0.17 0.16 0.15 0.15 0.13
0.00 0.00 0.00 0.00 0.00 0.00 0.00 0.00 0.01 0.02 0.04 0.05 0.07 0.11 0.13 0.08 0.07 0.08 0.12 0.12 0.13 0.14 0.15 0.17 0.18 0.17 0.12 0.11 0.10 0.13 0.13 0.13 0.13 0.13 0.13 0.14 0.17 0.19 0.19 0.16 0.15 0.12 0.12 0.14
0.00 0.00 0.00 0.00 0.00 0.00 0.00 0.00 0.01 0.02 0.03 0.06 0.08 0.09 0.09 0.11 0.10 0.13 0.17 0.18 0.19 0.20 0.20 0.17 0.18 0.19 0.14 0.10 0.12 0.13 0.16 0.18 0.18 0.15 0.14 0.13 0.14 0.16 0.20 0.17 0.15 0.14 0.12 0.12
0.00 0.00 0.00 0.00 0.00 0.00 0.00 0.00 0.01 0.04 0.04 0.05 0.08 0.09 0.08 0.11 0.12 0.15 0.17 0.19 0.20 0.21 0.21 0.19 0.20 0.20 0.15 0.11 0.11 0.12 0.13 0.16 0.17 0.14 0.13 0.14 0.15 0.15 0.18 0.17 0.12 0.11 0.10 0.09
0.00 0.00 0.00 0.00 0.00 0.00 0.00 0.00 0.00 0.02 0.03 0.04 0.06 0.09 0.06 0.07 0.09 0.12 0.12 0.13 0.16 0.17 0.17 0.17 0.17 0.16 0.16 0.17 0.16 0.14 0.13 0.14 0.14 0.12 0.14 0.17 0.19 0.18 0.16 0.15 0.12 0.10 0.09 0.10
0.00 0.00 0.00 0.00 0.00 0.00 0.00 0.00 0.00 0.01 0.02 0.04 0.06 0.06 0.06 0.07 0.08 0.09 0.10 0.11 0.14 0.13 0.11 0.10 0.10 0.09 0.09 0.11 0.12 0.13 0.12 0.10 0.10 0.11 0.13 0.17 0.17 0.20 0.19 0.16 0.14 0.13 0.11 0.09
0.00 0.00 0.00 0.00 0.00 0.01 0.01 0.01 0.01 0.01 0.02 0.03 0.04 0.04 0.04 0.05 0.06 0.05 0.06 0.08 0.07 0.06 0.05 0.06 0.07 0.05 0.04 0.05 0.07 0.09 0.08 0.06 0.07 0.07 0.08 0.10 0.11 0.12 0.15 0.15 0.13 0.11 0.10 0.07
0.00 0.00 0.00 0.00 0.00 0.00 0.00 0.01 0.01 0.01 0.01 0.02 0.02 0.03 0.02 0.02 0.02 0.02 0.02 0.02 0.02 0.02 0.02 0.02 0.02 0.02 0.02 0.02 0.02 0.03 0.03 0.03 0.03 0.03 0.03 0.05 0.06 0.08 0.09 0.09 0.08 0.07 0.07 0.05
0.00 0.00 0.00 0.00 0.00 0.00 0.00 0.00 0.00 0.00 0.00 0.01 0.02 0.02 0.01 0.00 0.01 0.01 0.01 0.01 0.01 0.01 0.01 0.01 0.00 0.00 0.00 0.00 0.01 0.01 0.01 0.02 0.02 0.01 0.02 0.02 0.03 0.04 0.05 0.06 0.08 0.07 0.06 0.07
0.00 0.00 0.00 0.00 0.00 0.00 0.00 0.00 0.00 0.00 0.00 0.00 0.01 0.01 0.00 0.00 0.00 0.00 0.00 0.00 0.00 0.00 0.00 0.00 0.00 0.00 0.00 0.00 0.00 0.00 0.00 0.01 0.01 0.01 0.02 0.02 0.03 0.03 0.04 0.05 0.05 0.05 0.05 0.07
0.00 0.00 0.00 0.00 0.00 0.00 0.00 0.00 0.00 0.00 0.01 0.01 0.01 0.01 0.00 0.00 0.01 0.00 0.00 0.00 0.00 0.00 0.00 0.00 0.00 0.00 0.00 0.00 0.00 0.00 0.00 0.00 0.00 0.00 0.00 0.01 0.01 0.01 0.01 0.02 0.03 0.03 0.03 0.04
0.00 0.00 0.00 0.00 0.00 0.00 0.00 0.00 0.00 0.00 0.01 0.00 0.00 0.00 0.00 0.01 0.03 0.02 0.00 0.00 0.00 0.00 0.00 0.00 0.00 0.00 0.00 0.00 0.00 0.00 0.00 0.00 0.00 0.00 0.00 0.00 0.00 0.00 0.00 0.00 0.01 0.02 0.02 0.02
0.00 0.00 0.00 0.00 0.00 0.00 0.00 0.00 0.00 0.00 0.00 0.00 0.00 0.00 0.00 0.00 0.01 0.00 0.00 0.00 0.00 0.00 0.00 0.00 0.00 0.00 0.00 0.00 0.00 0.00 0.00 0.00 0.00 0.00 0.00 0.00 0.00 0.00 0.00 0.00 0.00 0.01 0.02 0.02
0.00 0.00 0.00 0.00 0.00 0.00 0.00 0.00 0.00 0.00 0.00 0.00 0.00 0.00 0.00 0.00 0.00 0.00 0.00 0.00 0.01 0.01 0.00 0.00 0.00 0.00 0.00 0.00 0.00 0.00 0.00 0.00 0.00 0.00 0.00 0.00 0.00 0.00 0.00 0.00 0.00 0.00 0.01 0.01
0.00 0.00 0.00 0.00 0.00 0.00 0.00 0.00 0.00 0.00 0.00 0.00 0.00 0.00 0.00 0.00 0.00 0.00 0.00 0.00 0.01 0.01 0.01 0.00 0.00 0.00 0.00 0.00 0.00 0.00 0.00 0.00 0.00 0.00 0.00 0.01 0.00 0.00 0.00 0.00 0.00 0.00 0.00 0.01
0.00 0.00 0.00 0.00 0.00 0.00 0.00 0.00 0.00 0.00 0.00 0.00 0.00 0.00 0.00 0.00 0.00 0.00 0.00 0.00 0.00 0.01 0.00 0.00 0.00 0.00 0.00 0.00 0.00 0.00 0.00 0.00 0.00 0.00 0.00 0.00 0.00 0.00 0.00 0.00 0.00 0.00 0.00 0.00
0.00 0.00 0.00 0.00 0.00 0.00 0.00 0.00 0.00 0.00 0.00 0.00 0.00 0.00 0.00 0.00 0.00 0.00 0.00 0.00 0.00 0.00 0.00 0.00 0.00 0.00 0.00 0.00 0.00 0.00 0.00 0.00 0.00 0.00 0.00 0.00 0.00 0.00 0.00 0.01 0.00 0.00 0.00 0.00
0.00 0.00 0.00 0.00 0.00 0.00 0.00 0.00 0.00 0.00 0.00 0.00 0.00 0.00 0.00 0.00 0.00 0.00 0.00 0.00 0.00 0.00 0.00 0.00 0.00 0.00 0.00 0.00 0.00 0.00 0.00 0.00 0.00 0.00 0.00 0.00 0.01 0.01 0.01 0.01 0.01 0.00 0.00 0.00
MSLP
1010.40 1011.36 1012.16 1012.75 1013.08 1013.17 1013.08 1012.87 1012.63 1012.41 1012.25 1012.14 1012.08 1012.04 1011.98 1011.89 1011.76 1011.61 1011.46 1011.32 1011.20 1011.08 1010.95 1010.75 1010.46 1010.04 1009.51 1008.90 1008.25 1007.67 1007.22 1006.97 1006.98 1007.23 1007.70 1008.34 1009.05 1009.76 1010.41 1010.96 1011.40 1011.75 1012.06 1012.37
1011.48 1012.41 1013.17 1013.69 1013.95 1013.97 1013.82 1013.58 1013.32 1013.11 1012.98 1012.92 1012.90 1012.89 1012.86 1012.77 1012.63 1012.46 1012.28 1012.12 1011.98 1011.86 1011.73 1011.54 1011.25 1010.83 1010.27 1009.60 1008.87 1008.16 1007.57 1007.18 1007.03 1007.15 1007.52 1008.09 1008.78 1009.52 1010.23 1010.87 1011.41 1011.87 1012.27 1012.65
1012.48 1013.35 1014.04 1014.47 1014.65 1014.62 1014.44 1014.20 1013.98 1013.83 1013.77 1013.79 1013.85 1013.91 1013.91 1013.83 1013.67 1013.46 1013.22 1012.99 1012.79 1012.62 1012.46 1012.26 1011.96 1011.55 1010.99 1010.30 1009.54 1008.78 1008.11 1007.61 1007.35 1007.35 1007.62 1008.11 1008.76 1009.49 1010.22 1010.92 1011.53 1012.07 1012.54 1012.98
1013.35 1014.13 1014.71 1015.06 1015.17 1015.10 1014.92 1014.72 1014.59 1014.56 1014.63 1014.79 1014.97 1015.11 1015.17 1015.11 1014.92 1014.64 1014.31 1013.98 1013.67 1013.40 1013.16 1012.91 1012.60 1012.19 1011.65 1011.00 1010.26 1009.49 1008.80 1008.25 1007.92 1007.84 1008.01 1008.42 1008.99 1009.68 1010.40 1011.10 1011.74 1012.31 1012.81 1013.26
1014.12 1014.77 1015.23 1015.47 1015.52 1015.44 1015.30 1015.19 1015.19 1015.32 1015.58 1015.90 1016.24 1016.50 1016.63 1016.59 1016.37 1016.01 1015.57 1015.10 1014.65 1014.24 1013.89 1013.56 1013.22 1012.80 1012.30 1011.69 1011.01 1010.29 1009.63 1009.08 1008.71 1008.57 1008.67 1008.98 1009.46 1010.07 1010.72 1011.37 1011.98 1012.52 1013.00 1013.42
1014.81 1015.32 1015.65 1015.80 1015.80 1015.72 1015.65 1015.66 1015.82 1016.14 1016.59 1017.12 1017.62 1018.02 1018.24 1018.22 1017.98 1017.55 1016.98 1016.36 1015.75 1015.19 1014.71 1014.28 1013.87 1013.44 1012.96 1012.41 1011.80 1011.16 1010.55 1010.03 1009.66 1009.48 1009.51 1009.72 1010.09 1010.58 1011.12 1011.67 1012.19 1012.66 1013.07 1013.42
1015.49 1015.86 1016.07 1016.13 1016.09 1016.03 1016.03 1016.17 1016.50 1017.01 1017.66 1018.38 1019.05 1019.58 1019.88 1019.90 1019.64 1019.14 1018.47 1017.72 1016.95 1016.24 1015.62 1015.07 1014.59 1014.13 1013.66 1013.16 1012.61 1012.05 1011.51 1011.04 1010.68 1010.47 1010.42 1010.53 1010.78 1011.12 1011.51 1011.92 1012.31 1012.66 1012.96 1013.21
1016.19 1016.43 1016.53 1016.53 1016.46 1016.43 1016.50 1016.76 1017.23 1017.90 1018.72 1019.59 1020.40 1021.04 1021.42 1021.47 1021.21 1020.67 1019.93 1019.07 1018.18 1017.34 1016.59 1015.94 1015.38 1014.87 1014.39 1013.91 1013.42 1012.91 1012.43 1012.00 1011.65 1011.42 1011.31 1011.31 1011.42 1011.61 1011.83 1012.07 1012.30 1012.50 1012.67 1012.82
1016.91 1017.05 1017.08 1017.02 1016.95 1016.94 1017.07 1017.41 1017.99 1018.77 1019.70 1020.67 1021.56 1022.27 1022.70 1022.78 1022.53 1021.98 1021.20 1020.29 1019.32 1018.39 1017.55 1016.81 1016.18 1015.62 1015.11 1014.63 1014.16 1013.69 1013.24 1012.84 1012.50 1012.23 1012.06 1011.97 1011.95 1011.97 1012.03 1012.09 1012.15 1012.20 1012.25 1012.29
1017.60 1017.69 1017.68 1017.60 1017.53 1017.54 1017.71 1018.11 1018.73 1019.56 1020.52 1021.51 1022.42 1023.15 1023.59 1023.69 1023.45 1022.91 1022.14 1021.22 1020.24 1019.28 1018.39 1017.60 1016.90 1016.30 1015.75 1015.25 1014.78 1014.32 1013.89 1013.50 1013.15 1012.86 1012.63 1012.45 1012.32 1012.21 1012.11 1012.01 1011.92 1011.83 1011.76 1011.72
1018.19 1018.27 1018.26 1018.20 1018.14 1018.18 1018.37 1018.76 1019.38 1020.18 1021.10 1022.04 1022.90 1023.58 1023.99 1024.09 1023.87 1023.37 1022.65 1021.77 1020.83 1019.89 1019.00 1018.19 1017.47 1016.83 1016.25 1015.72 1015.23 1014.77 1014.34 1013.95 1013.60 1013.29 1013.02 1012.78 1012.55 1012.34 1012.11 1011.89 1011.68 1011.48 1011.32 1011.22
1018.62 1018.73 1018.76 1018.73 1018.70 1018.76 1018.95 1019.32 1019.88 1020.59 1021.41 1022.23 1022.98 1023.57 1023.92 1023.99 1023.79 1023.34 1022.69 1021.90 1021.04 1020.17 1019.33 1018.54 1017.83 1017.17 1016.57 1016.02 1015.51 1015.04 1014.61 1014.23 1013.88 1013.57 1013.28 1013.01 1012.74 1012.45 1012.15 1011.84 1011.54 1011.26 1011.04 1010.90
1018.85 1019.02 1019.10 1019.12 1019.14 1019.22 1019.40 1019.72 1020.19 1020.79 1021.45 1022.12 1022.72 1023.18 1023.44 1023.48 1023.29 1022.89 1022.33 1021.65 1020.90 1020.13 1019.37 1018.64 1017.96 1017.32 1016.72 1016.16 1015.65 1015.19 1014.77 1014.40 1014.08 1013.78 1013.51 1013.24 1012.95 1012.64 1012.30 1011.95 1011.59 1011.27 1011.01 1010.83
1018.91 1019.14 1019.27 1019.35 1019.41 1019.51 1019.67 1019.93 1020.30 1020.76 1021.26 1021.75 1022.19 1022.51 1022.68 1022.67 1022.48 1022.14 1021.67 1021.11 1020.49 1019.84 1019.18 1018.54 1017.91 1017.31 1016.73 1016.19 1015.70 1015.26 1014.87 1014.55 1014.26 1014.02 1013.79 1013.55 1013.28 1012.98 1012.64 1012.28 1011.91 1011.57 1011.28 1011.07
1018.86 1019.12 1019.30 1019.42 1019.51 1019.62 1019.76 1019.97 1020.23 1020.55 1020.90 1021.23 1021.51 1021.70 1021.77 1021.72 1021.55 1021.26 1020.89 1020.44 1019.94 1019.41 1018.87 1018.31 1017.75 1017.20 1016.67 1016.18 1015.72 1015.33 1015.00 1014.73 1014.51 1014.33 1014.17 1013.99 1013.77 1013.51 1013.20 1012.85 1012.49 1012.14 1011.83 1011.60
1018.76 1019.03 1019.23 1019.37 1019.48 1019.58 1019.70 1019.84 1020.03 1020.23 1020.44 1020.64 1020.79 1020.87 1020.88 1020.80 1020.64 1020.41 1020.12 1019.77 1019.39 1018.97 1018.52 1018.05 1017.57 1017.09 1016.61 1016.17 1015.78 1015.44 1015.18 1014.99 1014.85 1014.75 1014.66 1014.55 1014.40 1014.20 1013.93 1013.62 1013.27 1012.93 1012.61 1012.36
1018.69 1018.93 1019.12 1019.25 1019.35 1019.44 1019.52 1019.62 1019.73 1019.85 1019.96 1020.06 1020.12 1020.14 1020.11 1020.03 1019.89 1019.71 1019.49 1019.24 1018.94 1018.61 1018.25 1017.85 1017.43 1017.01 1016.59 1016.21 1015.88 1015.62 1015.43 1015.32 1015.27 1015.25 1015.24 1015.20 1015.12 1014.97 1014.76 1014.48 1014.17 1013.84 1013.52 1013.24
1018.67 1018.87 1019.01 1019.11 1019.18 1019.24 1019.28 1019.34 1019.40 1019.46 1019.51 1019.55 1019.57 1019.57 1019.53 1019.46 1019.37 1019.24 1019.08 1018.89 1018.67 1018.40 1018.09 1017.74 1017.37 1016.99 1016.63 1016.30 1016.03 1015.84 1015.72 1015.68 1015.71 1015.76 1015.82 1015.85 1015.83 1015.74 1015.57 1015.34 1015.06 1014.75 1014.43 1014.13
1018.71 1018.84 1018.92 1018.97 1019.00 1019.02 1019.03 1019.05 1019.07 1019.10 1019.13 1019.15 1019.16 1019.17 1019.16 1019.13 1019.08 1019.00 1018.90 1018.76 1018.57 1018.34 1018.06 1017.74 1017.40 1017.04 1016.71 1016.42 1016.20 1016.05 1016.00 1016.02 1016.09 1016.20 1016.31 1016.40 1016.43 1016.39 1016.27 1016.08 1015.84 1015.55 1015.25 1014.95
1018.74 1018.80 1018.83 1018.83 1018.81 1018.79 1018.78 1018.77 1018.78 1018.80 1018.83 1018.86 1018.90 1018.93 1018.96 1018.98 1018.98 1018.95 1018.89 1018.78 1018.62 1018.40 1018.13 1017.82 1017.47 1017.13 1016.81 1016.54 1016.34 1016.23 1016.21 1016.26 1016.38 1016.52 1016.67 1016.79 1016.86 1016.86 1016.78 1016.64 1016.44 1016.19 1015.92 1015.64
1018.69 1018.71 1018.69 1018.66 1018.62 1018.57 1018.54 1018.53 1018.54 1018.56 1018.61 1018.67 1018.75 1018.83 1018.91 1018.97 1019.02 1019.03 1019.00 1018.91 1018.76 1018.54 1018.26 1017.93 1017.57 1017.22 1016.89 1016.62 1016.43 1016.33 1016.32 1016.39 1016.53 1016.69 1016.86 1017.01 1017.11 1017.14 1017.11 1017.01 1016.86 1016.66 1016.43 1016.18
1018.51 1018.51 1018.48 1018.44 1018.39 1018.35 1018.33 1018.33 1018.35 1018.40 1018.48 1018.58 1018.69 1018.82 1018.94 1019.06 1019.14 1019.18 1019.17 1019.09 1018.93 1018.70 1018.40 1018.05 1017.67 1017.29 1016.95 1016.67 1016.47 1016.36 1016.35 1016.42 1016.56 1016.74 1016.92 1017.08 1017.21 1017.28 1017.29 1017.24 1017.14 1016.99 1016.82 1016.61
1018.19 1018.19 1018.17 1018.15 1018.13 1018.12 1018.12 1018.16 1018.22 1018.31 1018.42 1018.56 1018.71 1018.87 1019.03 1019.18 1019.29 1019.35 1019.34 1019.26 1019.09 1018.85 1018.52 1018.15 1017.75 1017.35 1016.98 1016.68 1016.46 1016.34 1016.32 1016.39 1016.52 1016.70 1016.89 1017.07 1017.23 1017.33 1017.39 1017.39 1017.35 1017.26 1017.13 1016.97
1017.74 1017.76 1017.78 1017.80 1017.82 1017.87 1017.93 1018.02 1018.13 1018.27 1018.42 1018.60 1018.78 1018.97 1019.15 1019.31 1019.43 1019.49 1019.49 1019.40 1019.23 1018.96 1018.63 1018.23 1017.81 1017.40 1017.01 1016.70 1016.46 1016.33 1016.29 1016.35 1016.48 1016.66 1016.86 1017.06 1017.24 1017.38 1017.49 1017.54 1017.55 1017.52 1017.45 1017.33
1017.22 1017.26 1017.32 1017.39 1017.49 1017.61 1017.75 1017.91 1018.08 1018.27 1018.47 1018.68 1018.89 1019.09 1019.28 1019.44 1019.55 1019.61 1019.60 1019.50 1019.32 1019.05 1018.71 1018.31 1017.89 1017.47 1017.08 1016.75 1016.50 1016.35 1016.31 1016.36 1016.48 1016.66 1016.87 1017.09 1017.30 1017.49 1017.63 1017.74 1017.80 1017.82 1017.79 1017.72
1016.68 1016.75 1016.84 1016.97 1017.14 1017.34 1017.56 1017.80 1018.05 1018.30 1018.55 1018.79 1019.01 1019.22 1019.40 1019.55 1019.65 1019.69 1019.67 1019.57 1019.39 1019.12 1018.79 1018.40 1017.99 1017.58 1017.19 1016.86 1016.62 1016.46 1016.40 1016.44 1016.56 1016.75 1016.97 1017.21 1017.44 1017.66 1017.85 1018.00 1018.11 1018.17 1018.18 1018.14
Thickness
5800 5785 5769 5771 5774 5770 5768 5764 5762 5768 5778 5768 5761 5761 5762 5764 5760 5758 5758 5758 5759 5761 5769 5775 5779 5784 5788 5792 5794 5797 5799 5801 5801 5797 5792 5785 5780 5780 5778 5776 5773 5771 5768 5765
5782 5765 5773 5777 5774 5768 5762 5755 5755 5762 5767 5758 5750 5749 5754 5748 5741 5739 5737 5737 5740 5743 5750 5755 5760 5768 5773 5776 5781 5786 5789 5794 5795 5794 5791 5783 5776 5773 5772 5769 5766 5765 5762 5759
5762 5762 5773 5767 5759 5751 5747 5743 5740 5738 5745 5748 5738 5731 5732 5727 5726 5722 5720 5719 5722 5726 5731 5737 5744 5750 5756 5761 5767 5773 5778 5783 5786 5787 5785 5779 5771 5767 5763 5760 5757 5757 5756 5753
5765 5765 5760 5753 5746 5739 5730 5740 5735 5730 5721 5719 5724 5703 5705 5703 5696 5694 5695 5698 5703 5708 5715 5721 5727 5733 5739 5746 5754 5761 5767 5771 5775 5776 5774 5770 5763 5756 5755 5754 5751 5749 5748 5746
5748 5750 5744 5736 5735 5734 5730 5737 5732 5727 5716 5708 5712 5700 5682 5684 5671 5672 5676 5681 5687 5693 5698 5705 5711 5717 5725 5732 5739 5745 5752 5757 5762 5764 5764 5760 5756 5751 5747 5744 5742 5740 5739 5738
5750 5751 5742 5732 5738 5740 5736 5735 5736 5731 5715 5690 5693 5683 5653 5651 5650 5656 5663 5668 5674 5680 5686 5691 5698 5704 5709 5717 5724 5731 5737 5741 5747 5751 5751 5749 5744 5740 5736 5733 5732 5730 5730 5729
5741 5739 5738 5734 5725 5727 5726 5711 5701 5695 5685 5678 5684 5663 5635 5641 5644 5645 5649 5654 5660 5666 5672 5677 5682 5688 5694 5701 5708 5716 5722 5726 5732 5735 5736 5735 5733 5731 5728 5725 5723 5721 5720 5718
5736 5721 5723 5722 5713 5705 5710 5702 5676 5662 5663 5667 5670 5643 5631 5637 5639 5641 5643 5646 5650 5655 5661 5666 5670 5675 5681 5687 5694 5701 5707 5711 5716 5719 5721 5722 5721 5719 5718 5716 5714 5713 5712 5711
5730 5715 5724 5721 5719 5709 5698 5691 5693 5676 5671 5659 5652 5638 5636 5636 5635 5635 5636 5638 5640 5645 5651 5656 5661 5666 5671 5676 5682 5688 5694 5698 5702 5705 5707 5708 5709 5708 5707 5706 5707 5706 5706 5707
5732 5717 5716 5719 5717 5710 5702 5693 5684 5669 5650 5641 5642 5625 5614 5619 5622 5626 5628 5628 5632 5638 5643 5648 5652 5657 5662 5667 5673 5678 5683 5687 5691 5694 5696 5697 5698 5698 5698 5698 5698 5700 5701 5702
5729 5719 5712 5709 5693 5685 5688 5683 5677 5670 5659 5638 5625 5615 5619 5615 5618 5619 5621 5624 5628 5633 5638 5642 5645 5650 5655 5659 5664 5668 5673 5677 5681 5684 5686 5688 5689 5690 5692 5692 5693 5695 5696 5697
5727 5719 5710 5700 5700 5700 5689 5680 5672 5654 5646 5645 5627 5615 5627 5622 5621 5621 5622 5625 5628 5631 5635 5638 5641 5645 5648 5652 5656 5660 5664 5668 5672 5675 5677 5679 5680 5682 5684 5686 5689 5691 5692 5694
5719 5716 5702 5688 5688 5691 5683 5679 5675 5667 5654 5639 5625 5617 5632 5628 5626 5627 5626 5627 5628 5631 5634 5636 5639 5641 5644 5647 5651 5655 5658 5661 5665 5668 5670 5671 5673 5675 5678 5681 5684 5687 5688 5690
5714 5713 5697 5679 5674 5678 5674 5673 5673 5665 5648 5636 5628 5625 5630 5631 5630 5631 5632 5631 5631 5633 5634 5636 5637 5640 5642 5645 5648 5651 5654 5658 5661 5663 5664 5666 5668 5670 5672 5675 5678 5681 5683 5686
5724 5710 5700 5692 5689 5684 5676 5670 5668 5661 5653 5641 5635 5633 5633 5635 5636 5636 5637 5637 5636 5636 5637 5638 5639 5641 5644 5646 5649 5651 5653 5656 5658 5659 5660 5661 5664 5666 5668 5670 5673 5676 5679 5682
5727 5712 5705 5695 5692 5686 5678 5674 5669 5662 5658 5651 5645 5639 5645 5645 5643 5641 5641 5640 5639 5638 5640 5641 5643 5644 5646 5648 5649 5651 5652 5654 5655 5655 5656 5658 5660 5661 5662 5665 5667 5670 5673 5676
5724 5715 5702 5699 5695 5687 5677 5678 5671 5666 5663 5657 5647 5645 5648 5646 5643 5642 5642 5642 5640 5640 5641 5642 5644 5646 5649 5651 5652 5652 5651 5652 5652 5652 5652 5653 5654 5655 5657 5659 5661 5663 5665 5667
5718 5711 5705 5702 5696 5673 5679 5689 5681 5671 5668 5666 5659 5655 5652 5650 5649 5648 5646 5643 5641 5641 5641 5642 5644 5647 5650 5652 5653 5653 5652 5650 5648 5647 5648 5648 5648 5649 5650 5651 5653 5655 5657 5658
5720 5709 5704 5703 5691 5687 5683 5687 5681 5671 5668 5672 5664 5659 5657 5657 5652 5646 5648 5645 5643 5642 5643 5644 5646 5649 5650 5651 5652 5651 5649 5647 5645 5643 5643 5643 5643 5642 5642 5643 5645 5647 5648 5650
5717 5712 5701 5699 5688 5681 5687 5693 5692 5677 5664 5673 5667 5660 5657 5655 5639 5636 5646 5647 5645 5644 5645 5645 5647 5649 5649 5650 5651 5648 5645 5643 5640 5639 5639 5638 5638 5636 5635 5636 5637 5639 5641 5642
5714 5710 5701 5697 5693 5697 5696 5694 5687 5664 5662 5671 5668 5662 5656 5648 5642 5645 5648 5647 5646 5646 5646 5646 5647 5647 5648 5650 5649 5645 5642 5640 5639 5638 5636 5635 5634 5633 5631 5630 5631 5632 5633 5634
5719 5715 5712 5705 5696 5689 5699 5692 5683 5677 5680 5673 5667 5662 5654 5650 5649 5647 5647 5647 5646 5645 5646 5646 5646 5648 5650 5650 5648 5643 5640 5640 5640 5637 5635 5632 5630 5629 5628 5626 5625 5625 5625 5625
5724 5723 5714 5710 5701 5705 5706 5700 5696 5691 5682 5674 5667 5661 5655 5650 5648 5647 5647 5647 5646 5646 5646 5646 5647 5648 5650 5650 5648 5644 5642 5643 5641 5638 5634 5632 5630 5626 5623 5621 5619 5618 5617 5616
5737 5733 5719 5712 5713 5711 5708 5704 5698 5692 5684 5677 5669 5662 5656 5650 5648 5647 5648 5648 5647 5646 5647 5647 5648 5648 5650 5651 5650 5647 5646 5645 5643 5639 5636 5632 5628 5624 5620 5617 5615 5612 5610 5609
5732 5728 5719 5715 5717 5712 5707 5704 5699 5692 5686 5678 5671 5665 5658 5652 5649 5648 5648 5648 5647 5648 5648 5649 5648 5649 5651 5653 5652 5650 5648 5647 5644 5640 5637 5634 5629 5624 5618 5613 5609 5608 5604 5602
5742 5731 5720 5717 5721 5714 5709 5707 5703 5693 5685 5680 5673 5667 5662 5657 5652 5650 5649 5650 5650 5651 5651 5650 5651 5652 5654 5654 5654 5652 5651 5648 5645 5640 5637 5633 5629 5625 5621 5615 5609 5605 5604 5602